Погода в Баргузине

Погода в Баргузине : погода сейчас, прогноз погоды и архив. Всё, что Вы хотите узнать о погоде в Баргузине!

Поиск расширенной информации на нашем сайте:

Другие новости

Новости СМИ2

Главная страница сайта

Новости сайта

03.07.2017

Напоминаем, что на нашем специализированном сайте Метеоцентр.Азия вы можете получить высокодетализированные автоматические прогнозы погоды по пунктам России, СНГ и мира в авиационном формате (включающие направление и скорость ветра, видимость, явления погоды, количество и форму облачности, нижнюю и верхнюю границу облачности).


Погода в Баргузине - сегодня

Время (UTC), дата Ветер
(°,м/с) 
Видим.   Явления Облачность Т
(°С)
Тd
(°С)
f(%) Тe
(°С)
Pmin
(гПа)
dP
(гПа)
Po
(мм)
O2
(г/м3)
Тmin Tmax R s Состояние
почвы
06 15.10.18 100 (В) 20000 м    ясно 
+9 -4.5 38 +10  1024.3  -1.5  724  283           
09 15.10.18 тихо ()   20000 м    ясно 
+7.7 -3.8 44 +8  1023.7  -0.8  724  284           
12 15.10.18 тихо ()   н/о    ясно 
-1 -4.2 79 -1  1026.5  0.8  724  293    +10.3       
15 15.10.18 тихо ()   н/о    ясно 
-3 -5 86 -3  1027.8  0.8  725  296           
18 15.10.18 тихо ()   н/о    ясно 
-3.9 -5.4 89 -4  1028.6  0.6  725  297           
21 15.10.18 тихо ()   н/о    ясно 
-4.9 -5.8 93 -5  1029.3  0.4  726  298           
03 16.10.18 080 (В) 20000 м    ясно 
+5.9 -2.3 56 +7  1027.6  -0.2  726  287           
06 16.10.18 090 (В) 20000 м    4/0 верхняя 
[Ci fib]
+9.9 -5.6 33 +11  1025  -1.6  725  282           
09 16.10.18 тихо ()   20000 м    10/0 верхняя 
[Ci fib]
+7.5 -4.9 41 +8  1024.8  -0.6  725  285           
15 16.10.18 тихо ()   н/о    ясно 
-2.8 -3.8 93 -3  1027.5  -0.3  725  295           
18 16.10.18 тихо ()   н/о    ясно 
-3.7 -4.3 96 -4  1027.1  -0.6  724  296           
21 16.10.18 тихо ()   н/о    ясно 
-4.6 -5 97 -5  1027.4  724  297           
03 17.10.18 110 (В) 20000 м    10/0 верхняя 
[Ci fib]
+4.2 -2.3 63 +5  1024.8  -0.5  724  287           
06 17.10.18 090 (В) 20000 м    3/0 верхняя 
[Ci fib]
+9.3 -3.5 40 +10  1021.8  -1.8  723  282           
09 17.10.18 тихо ()   20000 м    10/0 верхняя 
[Ci fib]
+6.5 -3.3 50 +7  1021.5  -0.8  722  284           
15 17.10.18 тихо ()   н/о    ясно 
-2.9 -4.2 91 -3  1024.9  0.8  723  295           
18 17.10.18 020 (С) н/о    ясно 
-2.4 -3.3 94 -2  1024.4  -0.4  723  294           
21 17.10.18 тихо ()   н/о    ясно 
-3.8 -4.3 96 -4  1024.8  0.1  723  296           
00 18.10.18 тихо ()   20000 м    8/0 средняя, верхняя 
[Ac trans|Ci fib]
-3.4 -3.7 98 -3  1025.5  0.7  723  295  -4.3         
03 18.10.18 070 (В) 20000 м    6/0 верхняя 
[Ci fib]
+4.5 -0.6 69 +5  1023  -0.7  723  286           
06 18.10.18 080 (В) 20000 м    6/0 верхняя 
[Ci fib]
+8.6 -1.7 48 +10  1020.8  -1.3  722  282           
09 18.10.18 тихо ()   20000 м    3/0 верхняя 
[Ci fib]
+6.5 -1.7 56 +7  1020.3  -0.8  721  284           
15 18.10.18 тихо ()   н/о    ясно 
-2.4 -3 96 -2  1023  0.3  722  294           
18 18.10.18 240 (ЮЗ) н/о    ясно 
-3.2 -3.5 98 -3  1021.9  -1.2  721  294           
21 18.10.18 020 (С) н/о    ясно 
-3.6 -3.9 98 -3  1021.5  -0.5  720  295           
Время (UTC), дата Ветер
(°,м/с) 
Видим.   Явления Облачность Т
(°С)
Тd
(°С)
f(%) Тe
(°С)
Pmin
(гПа)
dP
(гПа)
Po
(мм)
O2
(г/м3)
Тmin Tmax R s Состояние
почвы

Для получения пояснительной информации подведите курсор к названию столбца.

ПОГОДА в Баргузине - архив

Всё, что Вы хотите узнать о погоде в Баргузине - удобно и подробно!

Выберите нужную дату (начиная с 1 января 2015* года) и нажмите кнопку "Найти".
Будут отображены архивные сводки погоды по пункту Баргузин, начиная с указанной даты.


Отображать данные в формате CSV (для использования в таблицах Excel)


Внимание! Наш архив погоды предназначен исключительно для личного некоммерческого использования в познавательных целях. Если Вам необходимы официальные справки о состоянии погоды (для производственных, юридических, коммерческих и т.п. целей), обращайтесь в органы Росгидромета.

*Примечание: данная дата относится к архиву по метеостанциям СССР (Россия, СНГ, Балтия).
Архив по метеостанциям Зарубежной Европы и Азии (кроме Китая) хранится 10 дней, по другим регионам земного шара (Китай, Африка, Америка, Австралия, Океания) - 1 день.

Баргузин - район местоположения метеостанции


Название, широта, долгота, высота метеостанции:
Баргузин 53.6°ш. 109.6°д. 489 м над ур. моря [Российская Федерация]

Дополнительная информация

В oтличие oт бoльшинства пoгoдных сайтoв мы публикуем пoдрoбную метеoинфoрмацию в детальнoм прoфессиoнальнoм фoрмате.

Характеристики температуры и влажнoсти вoздуха измеряются на высoте 2 м в тени вдали oт зданий и деревьев.
Скoрoсть ветра измеряется на высoте 10 м (на урoвне рoста челoвека скoрoсть ветра ниже в 1.5-2 раза). Если метеoстанция нахoдится в гoрoде или в лесу, тo скoрoсть ветра занижена на 2-4 м/с пo сравнению с oткрытым местoм. Скoрoсть ветра над акватoриями крупных рек и oзёр, а также на вершинах хoлмoв на 2-5 м/с выше, чем в oбычных услoвиях.
Атмoсфернoе давление в разных тoчках местнoсти мoжет значительнo oтличаться oт давления на метеoстанции, в зависимoсти oт услoвий рельефа (при пoдъёме на 10 м давление пoнижается примернo на 1 мм рт.ст.).